Location: ??????
(56.0120°N, 39.1740°E)
Time: 19:59:28
(UTC+00:00)

PAYLOAD B - Pass Details

Date: 14 April 2026
Orbit: 848 x 869 km, 99.0° (Epoch: 19 May)

Event Time Altitude Azimuth Distance (km) Brightness Sun altitude
Rises 17:23:06 0° 166° (SSE) 3,406 6.9 -7.8°
Reaches altitude 10° 17:25:28 10° 167° (SSE) 2,473 6.2 -8.1°
Maximum altitude 17:30:57 77° 254° (WSW) 877 4.4 -8.8°
Drops below altitude 10° 17:36:29 10° 341° (NNW) 2,488 7.5 -9.4°
Sets 17:38:52 0° 343° (NNW) 3,429 8.3 -9.7°
